Total_Precipitation_Accumulation
0.51 0.49 0.45 0.44 0.41 0.38 0.35 0.34 0.32 0.30 0.28 0.25 0.24 0.22 0.20 0.16 0.13 0.13 0.11 0.13 0.16 0.16 0.19 0.27 0.42 0.72 1.02 1.09 1.15 1.07 0.96 0.90 0.79 0.65 0.62 0.75 0.84 0.82 0.76 0.83 0.77 0.61 0.56
0.54 0.52 0.50 0.44 0.42 0.41 0.36 0.32 0.27 0.26 0.24 0.21 0.18 0.16 0.16 0.15 0.13 0.14 0.15 0.17 0.17 0.16 0.17 0.20 0.28 0.45 0.77 1.01 1.17 1.35 1.20 1.07 1.02 0.85 0.66 0.65 0.75 0.80 0.82 0.82 0.86 0.77 0.63
0.67 0.59 0.54 0.49 0.43 0.43 0.42 0.40 0.36 0.30 0.26 0.22 0.18 0.15 0.13 0.12 0.11 0.12 0.13 0.16 0.20 0.18 0.17 0.19 0.20 0.28 0.45 0.72 0.99 1.31 1.50 1.28 1.21 1.16 0.94 0.70 0.67 0.75 0.81 0.86 0.89 0.94 0.82
0.74 0.74 0.65 0.56 0.46 0.47 0.49 0.48 0.45 0.39 0.32 0.28 0.23 0.18 0.15 0.12 0.10 0.10 0.10 0.13 0.18 0.20 0.19 0.20 0.20 0.21 0.29 0.45 0.69 1.04 1.62 1.61 1.44 1.39 1.36 1.07 0.80 0.75 0.77 0.84 0.92 0.97 1.04
0.78 0.80 0.79 0.69 0.58 0.53 0.50 0.47 0.44 0.40 0.35 0.31 0.28 0.25 0.20 0.16 0.13 0.11 0.09 0.09 0.11 0.16 0.20 0.21 0.22 0.21 0.22 0.27 0.45 0.76 1.38 1.75 1.77 1.73 1.71 1.56 1.19 0.91 0.83 0.84 0.93 1.00 1.09
0.78 0.77 0.81 0.78 0.69 0.60 0.53 0.48 0.42 0.37 0.33 0.30 0.29 0.28 0.24 0.20 0.16 0.14 0.12 0.10 0.09 0.10 0.15 0.19 0.21 0.21 0.19 0.19 0.25 0.42 0.82 1.30 1.60 1.79 1.85 1.93 1.76 1.30 1.01 0.92 0.94 1.05 1.13
0.83 0.80 0.76 0.75 0.73 0.63 0.52 0.48 0.46 0.41 0.36 0.32 0.33 0.32 0.29 0.24 0.19 0.15 0.12 0.11 0.09 0.08 0.09 0.13 0.18 0.22 0.21 0.19 0.19 0.22 0.38 0.75 1.15 1.44 1.62 1.82 2.07 1.89 1.43 1.15 1.05 1.10 1.23
0.78 0.83 0.79 0.73 0.67 0.63 0.57 0.48 0.45 0.44 0.39 0.32 0.32 0.36 0.32 0.28 0.23 0.16 0.12 0.10 0.08 0.07 0.07 0.08 0.12 0.17 0.22 0.21 0.15 0.14 0.20 0.39 0.77 1.18 1.45 1.63 1.92 2.21 2.02 1.55 1.29 1.24 1.32
0.73 0.75 0.76 0.73 0.67 0.59 0.55 0.49 0.41 0.38 0.38 0.30 0.25 0.38 0.47 0.33 0.21 0.15 0.12 0.09 0.07 0.06 0.06 0.06 0.07 0.10 0.16 0.22 0.20 0.14 0.12 0.20 0.43 0.81 1.27 1.59 1.82 2.13 2.33 2.10 1.67 1.43 1.44
0.75 0.72 0.71 0.69 0.69 0.62 0.53 0.48 0.44 0.39 0.39 0.37 0.28 0.25 0.31 0.34 0.36 0.22 0.12 0.11 0.10 0.08 0.07 0.05 0.06 0.07 0.10 0.16 0.22 0.21 0.17 0.17 0.27 0.52 0.93 1.48 1.89 2.15 2.52 2.49 2.17 1.78 1.61
0.83 0.76 0.71 0.69 0.65 0.62 0.55 0.48 0.45 0.43 0.42 0.42 0.37 0.29 0.24 0.20 0.23 0.32 0.19 0.11 0.13 0.12 0.10 0.07 0.06 0.07 0.08 0.11 0.16 0.21 0.25 0.27 0.36 0.47 0.71 1.16 1.88 2.24 2.67 2.90 2.59 2.11 1.79
0.91 0.84 0.75 0.71 0.66 0.61 0.56 0.51 0.45 0.43 0.41 0.40 0.38 0.34 0.33 0.32 0.25 0.29 0.28 0.14 0.11 0.10 0.11 0.11 0.10 0.11 0.12 0.12 0.14 0.23 0.30 0.34 0.44 0.50 0.53 0.82 1.40 2.09 2.54 2.90 2.80 2.33 1.95
0.91 0.83 0.79 0.73 0.67 0.62 0.59 0.56 0.51 0.45 0.41 0.40 0.39 0.37 0.34 0.31 0.29 0.32 0.38 0.27 0.18 0.12 0.11 0.12 0.12 0.13 0.15 0.16 0.17 0.22 0.26 0.32 0.38 0.43 0.43 0.52 0.83 1.41 2.12 2.66 2.98 2.75 2.26
0.83 0.75 0.73 0.71 0.66 0.62 0.61 0.62 0.59 0.51 0.45 0.43 0.40 0.38 0.38 0.34 0.35 0.40 0.45 0.49 0.42 0.21 0.13 0.12 0.10 0.10 0.14 0.17 0.16 0.19 0.17 0.24 0.29 0.33 0.37 0.41 0.54 0.86 1.41 2.06 2.82 3.29 3.00
0.78 0.78 0.75 0.72 0.68 0.66 0.66 0.67 0.64 0.56 0.50 0.47 0.46 0.43 0.44 0.40 0.40 0.40 0.42 0.51 0.69 0.55 0.23 0.12 0.11 0.11 0.14 0.18 0.17 0.15 0.13 0.17 0.22 0.26 0.31 0.35 0.42 0.60 0.92 1.41 1.99 2.89 3.49
0.76 0.78 0.81 0.78 0.73 0.69 0.70 0.72 0.68 0.60 0.57 0.54 0.53 0.52 0.47 0.44 0.46 0.48 0.50 0.49 0.55 0.64 0.44 0.15 0.12 0.12 0.16 0.23 0.24 0.19 0.17 0.19 0.20 0.21 0.22 0.24 0.30 0.42 0.65 0.97 1.38 1.96 2.85
0.73 0.73 0.75 0.78 0.80 0.74 0.69 0.73 0.71 0.66 0.64 0.59 0.56 0.55 0.51 0.50 0.57 0.60 0.63 0.59 0.53 0.55 0.56 0.24 0.15 0.16 0.23 0.30 0.29 0.22 0.20 0.18 0.15 0.17 0.19 0.22 0.26 0.34 0.50 0.72 0.98 1.34 1.98
0.75 0.67 0.68 0.73 0.77 0.77 0.72 0.71 0.71 0.67 0.67 0.64 0.60 0.60 0.58 0.56 0.60 0.65 0.71 0.70 0.61 0.53 0.58 0.43 0.24 0.23 0.29 0.36 0.38 0.30 0.24 0.20 0.14 0.15 0.18 0.23 0.29 0.35 0.44 0.58 0.76 1.01 1.37
0.95 0.77 0.70 0.72 0.80 0.83 0.79 0.73 0.72 0.71 0.66 0.62 0.61 0.65 0.66 0.66 0.62 0.63 0.73 0.77 0.71 0.62 0.62 0.59 0.38 0.26 0.28 0.37 0.45 0.40 0.32 0.28 0.21 0.18 0.20 0.22 0.26 0.33 0.40 0.48 0.63 0.81 0.99
1.02 0.92 0.80 0.75 0.81 0.91 0.90 0.90 0.90 0.82 0.73 0.62 0.55 0.56 0.65 0.76 0.78 0.81 0.83 0.81 0.82 0.83 0.78 0.73 0.56 0.40 0.36 0.39 0.52 0.55 0.47 0.39 0.33 0.27 0.24 0.22 0.25 0.31 0.35 0.38 0.42 0.54 0.73
0.91 0.90 0.88 0.81 0.81 1.00 1.20 1.35 1.26 0.97 0.78 0.66 0.53 0.50 0.59 0.79 0.96 1.13 1.18 1.06 1.06 1.13 1.06 0.98 0.86 0.68 0.54 0.53 0.59 0.60 0.66 0.55 0.49 0.40 0.31 0.24 0.24 0.23 0.23 0.29 0.34 0.40 0.53
0.84 0.84 0.83 0.82 0.79 0.96 1.29 1.49 1.18 0.85 0.71 0.65 0.58 0.50 0.55 0.76 0.90 1.00 1.12 1.11 1.15 1.30 1.36 1.28 1.13 0.92 0.67 0.55 0.58 0.70 0.83 0.89 0.75 0.55 0.44 0.35 0.32 0.29 0.24 0.22 0.27 0.34 0.44
0.80 0.80 0.76 0.75 0.72 0.78 1.10 1.32 1.07 0.76 0.65 0.60 0.56 0.52 0.54 0.64 0.75 0.79 0.84 0.86 0.90 1.05 1.26 1.36 1.31 1.00 0.79 0.66 0.77 0.89 0.91 0.99 0.88 0.80 0.77 0.67 0.45 0.37 0.29 0.30 0.34 0.35 0.42
0.77 0.76 0.75 0.70 0.66 0.69 0.98 1.24 1.06 0.76 0.65 0.59 0.57 0.53 0.49 0.53 0.64 0.79 0.85 0.80 0.74 0.82 1.05 1.25 1.42 1.23 1.03 1.00 1.16 1.32 1.32 1.27 1.08 1.01 0.99 1.05 0.73 0.52 0.42 0.37 0.38 0.34 0.38
0.76 0.72 0.69 0.70 0.65 0.62 0.86 1.24 1.12 0.77 0.65 0.59 0.59 0.55 0.49 0.47 0.62 0.77 0.75 0.70 0.64 0.69 0.81 1.01 1.15 1.17 1.16 1.27 1.48 1.78 1.84 1.74 1.46 1.19 1.09 1.11 1.05 0.91 0.79 0.64 0.52 0.44 0.39
0.72 0.71 0.66 0.66 0.62 0.56 0.70 1.12 1.22 0.79 0.65 0.59 0.59 0.55 0.59 0.59 0.68 0.71 0.65 0.67 0.74 0.68 0.64 0.67 0.70 0.73 0.77 0.88 1.20 1.59 1.81 1.84 1.62 1.52 1.32 1.18 1.23 1.25 1.40 1.12 0.80 0.57 0.45